Find Starlink 32594

NORAD ID: 62302 Int'l Des: 2024-239 Owner: SPXS Country: US Constellation: starlink operational
LEOCIRCULAR

当前视图

正在加载3D地球...

About Starlink 32594

Starlink 32594 (NORAD 62302) is a starlink constellation satellite (v2 mini) launched Dec 13, 2024 by SPXS of US. It operates in LEO, CIRCULAR orbit with a mass of 730.00 kg.

即将过境

Passes for default location (London). Set your location on the main map for personalized predictions.

高度历史

Loading altitude history...

两行轨道根数

1 62302U 24239B 26235.72510531 .00025544 00000-0 76496-3 0 9990
2 62302 53.1572 133.2331 0002269 108.9845 251.1404 15.34383256 95021
Epoch: Aug 23, 2026 • Age: 13 hours

当前状态

高度 466.2 km
远地点 / 近地点 N/A
速度 7.63 km/s
星下点 -13.60°S, 112.99°W
发射日期 Dec 13, 2024
运行时间 1.6 years
类型 internet

技术详情

分类 Payload
质量 730.00 kg
干质量 700.00 kg
总质量 730.00 kg
长度 0.30 m
直径 4.10 m
跨度 29.00 m
形状 Box + pan
制造商 SPXS
平台类型 Starlink V2M
阶段状态 In Orbit
所有者/国家 SPXS/US

Most Searched